This is the latest recevied weather packets stored in our database for station/object N5JXS. If no packets are shown the sender has not sent any weather packets the latest 10 day(s).
| Time | Temp. | Humidity | Pressure | Rain* | Wind** | Luminosity | Snow |
|---|---|---|---|---|---|---|---|
| 1788304526 | 25.56° C | 27% | 1024.4 hPa | 0 mm | - | 81 W/m² | - |
| 1788304222 | 26.11° C | 27% | 1024.4 hPa | 0 mm | - | 72 W/m² | - |
| 1788303921 | 26.11° C | 27% | 1024.7 hPa | 0 mm | - | 66 W/m² | - |
| 1788303617 | 26.11° C | 28% | 1024.4 hPa | 0 mm | - | 43 W/m² | - |
| 1788303312 | 26.11° C | 27% | 1024.6 hPa | 0 mm | - | 33 W/m² | - |
| 1788303006 | 26.11° C | 28% | 1024.6 hPa | 0 mm | - | 119 W/m² | - |
| 1788302702 | 26.67° C | 27% | 1024.5 hPa | 0 mm | - | 51 W/m² | - |
| 1788302398 | 26.67° C | 28% | 1024.7 hPa | 0 mm | - | 58 W/m² | - |
| 1788302094 | 26.11° C | 27% | 1024.5 hPa | 0 mm | - | 40 W/m² | - |
| 1788301789 | 25.56° C | 27% | 1024.7 hPa | 0 mm | - | 49 W/m² | - |
| 1788301506 | 26.11° C | 30% | 1024.8 hPa | 0 mm | - | 68 W/m² | - |
| 1788301181 | 25.56° C | 29% | 1024.6 hPa | 0 mm | - | 85 W/m² | - |
| 1788300877 | 25° C | 30% | 1024.6 hPa | 0 mm | - | 120 W/m² | - |
| 1788300577 | 25.56° C | 28% | 1024.6 hPa | 0 mm | - | 69 W/m² | - |
| 1788300276 | 26.11° C | 26% | 1025 hPa | 0 mm | - | 58 W/m² | - |
| 1788299974 | 25.56° C | 27% | 1024.6 hPa | 0 mm | - | 66 W/m² | - |
| 1788299672 | 25.56° C | 29% | 1025.1 hPa | 0 mm | - | 74 W/m² | - |
| 1788299367 | 25.56° C | 30% | 1025.1 hPa | 0 mm | - | 90 W/m² | - |
| 1788299065 | 25.56° C | 31% | 1025.1 hPa | 0 mm | - | 110 W/m² | - |
| 1788298760 | 25.56° C | 31% | 1025.1 hPa | 0 mm | - | 124 W/m² | - |
| 1788298455 | 26.11° C | 30% | 1025 hPa | 0 mm | - | 77 W/m² | - |
| 1788298154 | 26.67° C | 29% | 1025.1 hPa | 0 mm | - | 517 W/m² | - |
| 1788297850 | 26.67° C | 29% | 1025.3 hPa | 0 mm | - | 567 W/m² | - |
| 1788297546 | 27.78° C | 27% | 1025.1 hPa | 0 mm | - | 98 W/m² | - |
| 1788297241 | 27.78° C | 28% | 1025.2 hPa | 0 mm | - | 111 W/m² | - |
* Rain latest hour (hover to see other rain measurements)
** Current wind speed in m/s (hover to see current wind gust speed)